Time,TemperatureF,DewpointF,PressureIn,WindDirection,WindDirectionDegrees,WindSpeedMPH,WindSpeedGustMPH,Humidity,HourlyPrecipIn,Conditions,Clouds,dailyrainin,SoftwareType,DateUTC
2013-02-22 00:00:00,15.9,12.5,30.04,ENE,70,2.0,3.0,86,0.00,,,0.02,Wunderground v.1.15,2013-02-22 07:00:00,
2013-02-22 00:30:00,15.2,11.8,30.04,SE,131,1.0,3.0,86,0.00,,,0.00,Wunderground v.1.15,2013-02-22 07:30:00,
2013-02-22 01:00:00,14.9,11.5,30.04,SE,141,0.0,0.0,86,0.00,,,0.00,Wunderground v.1.15,2013-02-22 08:00:00,
2013-02-22 01:30:00,15.2,11.8,30.03,SE,141,0.0,0.0,86,0.00,,,0.00,Wunderground v.1.15,2013-02-22 08:30:00,
2013-02-22 02:00:00,15.1,11.7,30.03,East,99,0.0,0.0,86,0.00,,,0.00,Wunderground v.1.15,2013-02-22 09:00:00,
2013-02-22 02:30:00,15.6,12.2,30.02,East,99,0.0,0.0,86,0.00,,,0.00,Wunderground v.1.15,2013-02-22 09:30:00,
2013-02-22 03:00:00,15.7,12.3,30.01,East,99,0.0,0.0,86,0.00,,,0.00,Wunderground v.1.15,2013-02-22 10:00:00,
2013-02-22 03:30:00,16.1,12.9,30.01,East,99,0.0,0.0,87,0.00,,,0.00,Wunderground v.1.15,2013-02-22 10:30:00,
2013-02-22 04:00:00,16.4,13.2,30.02,East,99,0.0,0.0,87,0.00,,,0.00,Wunderground v.1.15,2013-02-22 11:00:00,
2013-02-22 04:30:00,16.9,13.4,30.02,East,99,0.0,0.0,86,0.00,,,0.00,Wunderground v.1.15,2013-02-22 11:30:00,
2013-02-22 05:00:00,16.5,13.0,30.02,East,99,0.0,0.0,86,0.00,,,0.00,Wunderground v.1.15,2013-02-22 12:00:00,
2013-02-22 05:30:00,16.5,13.0,30.03,East,99,0.0,0.0,86,0.00,,,0.00,Wunderground v.1.15,2013-02-22 12:30:00,
2013-02-22 06:00:00,16.4,12.9,30.03,East,99,0.0,0.0,86,0.00,,,0.00,Wunderground v.1.15,2013-02-22 13:00:00,
2013-02-22 06:30:00,16.4,12.9,30.03,East,99,0.0,0.0,86,0.00,,,0.00,Wunderground v.1.15,2013-02-22 13:30:00,
2013-02-22 07:00:00,16.9,13.7,30.04,SW,226,0.0,0.0,87,0.00,,,0.00,Wunderground v.1.15,2013-02-22 14:00:00,
2013-02-22 07:30:00,18.1,14.9,30.05,SW,234,0.0,0.0,87,0.00,,,0.00,Wunderground v.1.15,2013-02-22 14:30:00,
2013-02-22 08:00:00,19.9,16.4,30.05,SW,230,0.0,0.0,86,0.00,,,0.00,Wunderground v.1.15,2013-02-22 15:00:00,
2013-02-22 08:30:00,21.9,18.4,30.05,SW,230,0.0,0.0,86,0.00,,,0.00,Wunderground v.1.15,2013-02-22 15:30:00,
2013-02-22 09:00:00,22.9,18.8,30.05,SW,214,0.0,0.0,84,0.00,,,0.00,Wunderground v.1.15,2013-02-22 16:00:00,
2013-02-22 09:30:00,23.8,19.4,30.05,SSW,210,0.0,0.0,83,0.00,,,0.00,Wunderground v.1.15,2013-02-22 16:30:00,
2013-02-22 10:00:00,25.6,20.6,30.05,SSE,153,0.0,0.0,81,0.00,,,0.00,Wunderground v.1.15,2013-02-22 17:00:00,
2013-02-22 10:30:00,26.7,20.5,30.04,ESE,118,2.0,4.0,77,0.00,,,0.00,Wunderground v.1.15,2013-02-22 17:30:00,
2013-02-22 11:00:00,27.5,20.9,30.03,ESE,110,3.0,3.0,76,0.00,,,0.01,Wunderground v.1.15,2013-02-22 18:00:00,
2013-02-22 11:30:00,29.3,22.0,30.03,SSE,151,3.0,3.0,74,0.00,,,0.01,Wunderground v.1.15,2013-02-22 18:30:00,
2013-02-22 12:00:00,30.7,23.4,30.01,ESE,104,3.0,5.0,74,0.00,,,0.01,Wunderground v.1.15,2013-02-22 19:00:00,
2013-02-22 12:30:00,32.4,24.4,29.99,SE,139,3.0,3.0,72,0.00,,,0.02,Wunderground v.1.15,2013-02-22 19:30:00,
2013-02-22 13:00:00,33.7,25.3,29.98,NNE,33,5.0,5.0,71,0.00,,,0.02,Wunderground v.1.15,2013-02-22 20:00:00,
2013-02-22 13:30:00,35.3,24.7,29.96,ESE,122,4.0,4.0,65,0.00,,,0.02,Wunderground v.1.15,2013-02-22 20:30:00,
2013-02-22 14:00:00,36.8,25.0,29.95,SE,136,2.0,2.0,62,0.00,,,0.02,Wunderground v.1.15,2013-02-22 21:00:00,
2013-02-22 14:30:00,37.2,24.6,29.95,SSE,157,1.0,1.0,60,0.00,,,0.02,Wunderground v.1.15,2013-02-22 21:30:00,
2013-02-22 15:00:00,37.0,24.0,29.94,SSE,147,2.0,2.0,59,0.00,,,0.02,Wunderground v.1.15,2013-02-22 22:00:00,
2013-02-22 15:30:00,37.0,23.6,29.93,SE,130,1.0,4.0,58,0.00,,,0.02,Wunderground v.1.15,2013-02-22 22:30:00,
2013-02-22 16:00:00,36.6,24.0,29.92,South,170,4.0,5.0,60,0.00,,,0.02,Wunderground v.1.15,2013-02-22 23:00:00,
2013-02-22 16:30:00,36.6,24.0,29.91,ESE,116,2.0,4.0,60,0.00,,,0.02,Wunderground v.1.15,2013-02-22 23:30:00,
2013-02-22 17:00:00,35.5,23.4,29.91,SSE,158,2.0,2.0,61,0.00,,,0.02,Wunderground v.1.15,2013-02-23 00:00:00,
2013-02-22 17:30:00,34.3,22.6,29.91,East,100,0.0,0.0,62,0.00,,,0.02,Wunderground v.1.15,2013-02-23 00:30:00,
2013-02-22 18:00:00,33.1,22.6,29.90,SSW,197,0.0,0.0,65,0.00,,,0.02,Wunderground v.1.15,2013-02-23 01:00:00,
2013-02-22 18:30:00,31.8,22.1,29.90,SSW,197,0.0,0.0,67,0.00,,,0.02,Wunderground v.1.15,2013-02-23 01:30:00,
2013-02-22 19:00:00,30.0,20.7,29.90,SSW,197,0.0,0.0,68,0.00,,,0.02,Wunderground v.1.15,2013-02-23 02:00:00,
2013-02-22 19:30:00,29.0,19.8,29.89,SSW,197,0.0,0.0,68,0.00,,,0.02,Wunderground v.1.15,2013-02-23 02:30:00,
2013-02-22 20:00:00,28.1,19.9,29.90,SSW,197,0.0,0.0,71,0.00,,,0.02,Wunderground v.1.15,2013-02-23 03:00:00,
2013-02-22 20:30:00,26.3,19.1,29.89,SSW,197,0.0,0.0,74,0.00,,,0.02,Wunderground v.1.15,2013-02-23 03:30:00,
2013-02-22 21:00:00,25.8,19.3,29.88,SSW,197,0.0,0.0,76,0.00,,,0.02,Wunderground v.1.15,2013-02-23 04:00:00,
2013-02-22 21:30:00,25.4,18.3,29.88,WNW,297,0.0,0.0,74,0.00,,,0.02,Wunderground v.1.15,2013-02-23 04:30:00,
2013-02-22 22:00:00,25.1,16.4,29.87,WNW,297,0.0,0.0,69,0.00,,,0.02,Wunderground v.1.15,2013-02-23 05:00:00,
2013-02-22 22:30:00,25.6,15.1,29.86,WNW,297,0.0,0.0,64,0.00,,,0.02,Wunderground v.1.15,2013-02-23 05:30:00,
2013-02-22 23:00:00,24.5,16.1,29.84,WNW,303,0.0,0.0,70,0.00,,,0.02,Wunderground v.1.15,2013-02-23 06:00:00,
2013-02-22 23:30:00,22.7,14.7,29.83,WNW,303,0.0,0.0,71,0.00,,,0.02,Wunderground v.1.15,2013-02-23 06:30:00,